Location: Bannatyne
(13.0833°N, 59.5333°W)
Time: 14:06:22
(UTC+00:00)

Vanguard 3 - Pass Details

Date: 31 January 2020
Orbit: 508 x 3263 km, 33.3° (Epoch: 23 February)

Event Time Altitude Azimuth Distance (km) Brightness Sun altitude
Rises 00:55:56 0° 303° (WNW) 7,193 12.5 -42.8°
Reaches altitude 10° 01:01:21 10° 308° (NW) 6,032 11.9 -44.1°
Enters shadow 01:15:02 46° 344° (NNW) 3,195 9.9 -47.3°
Maximum altitude 01:18:45 53° 21° (NNE) 2,757 - -48.2°
Drops below altitude 10° 01:29:24 10° 95° (E) 3,860 - -50.7°
Sets 01:32:02 0° 101° (E) 4,536 - -51.4°
